#timestamp,LO_Frequency,Hit,StdDev 
1515736815.1,286046998.3,N
1515736835.9,286046997.0,N
1515736855.7,286046997.5,N
1515736875.6,286046997.8,N
1515736895.4,286046998.8,N
1515736915.2,286047001.2,N
1515736935.1,286047000.4,N
1515736936.0,286047000.4,N
1515736955.8,286047000.4,N
1515736975.7,286047000.7,N
1515736995.5,286046999.8,N
1515737015.3,286047000.5,N
1515737035.2,286047000.1,N
1515737055.0,286046998.8,N
1515737055.9,286046998.8,N
1515737075.8,286046998.1,N
1515737095.6,286047001.1,N
1515737115.4,286046998.1,N
1515737135.3,286046998.9,N
1515737155.1,286046996.6,N
1515737175.8,286046998.7,N
1515737195.7,286046998.1,N
1515737215.5,286046998.2,N
1515737235.4,286047001.2,N
1515737255.2,286046998.8,N
1515737275.0,286046998.8,N
1515737275.9,286046998.8,N
1515737295.8,286047000.9,N
1515737315.6,286046999.8,N
1515737335.5,286046998.3,N
1515737355.3,286047001.0,N
1515737375.1,286047002.8,N
1515737395.9,286047001.6,N
1515737415.7,286047002.8,N
1515737435.5,286047001.1,N
1515737455.4,286046998.2,N
1515737475.2,286047001.1,N
1515737495.1,286047000.5,N
1515737496.0,286047000.5,N
1515737515.8,286047001.0,N
1515737535.6,286047000.2,N
1515737555.4,286047000.4,N
1515737575.2,286047001.0,N
1515737595.1,286046999.8,N
1515737596.0,286046999.8,N
1515737615.8,286047000.9,N
1515737635.6,286047000.8,N
1515737655.5,286046998.1,N
1515737675.3,286046998.9,N
1515737695.2,286046998.3,N
1515737715.9,286046999.3,N
1515737735.7,286046999.1,N
1515737755.6,286046999.0,N
1515737775.4,286047001.1,N
1515737795.2,286046998.2,N
1515737815.1,286047000.2,N
1515737816.0,286047000.2,N
1515737835.8,286047001.0,N
1515737855.7,286046997.0,N
1515737875.5,286046999.3,N
1515737895.3,286046998.4,N
1515737915.2,286046998.5,N
1515737935.0,286046998.7,N
1515737935.9,286046998.7,N
1515737955.7,286046996.6,N
1515737975.6,286046996.7,N
1515737995.4,286046998.2,N
1515738015.3,286047000.0,N
1515738035.1,286047000.2,N
1515738055.8,286047000.1,N
1515738075.7,286046999.7,N
1515738095.5,286047000.3,N
1515738115.4,286047000.7,N
1515738135.2,286047002.6,N
1515738155.0,286047002.0,N
1515738155.9,286047002.0,N
1515738175.8,286047000.0,N
1515738195.6,286047002.8,N
1515738215.5,286047002.4,N
1515738235.3,286046999.8,N
1515738255.1,286047000.8,N
1515738275.9,286046999.7,N
1515738295.7,286046999.7,N
1515738315.5,286046998.2,N
1515738335.4,286046998.6,N
1515738355.2,286047000.9,N
1515738375.1,286047000.1,N
1515738376.0,286047000.1,N
1515738395.8,286047002.6,N
1515738415.6,286047002.5,N
1515738435.5,286047003.9,N
1515738455.3,286047003.8,N
1515738475.1,286047003.9,N
1515738495.9,286047004.0,N
1515738515.7,286047002.0,N
1515738535.6,286047004.2,N
1515738555.4,286047003.9,N
1515738575.2,286047004.2,N
1515738595.1,286047003.3,N
1515738596.0,286047003.3,N
1515738615.8,286047001.8,N
1515738635.7,286047001.9,N
1515738655.5,286047001.7,N
1515738675.3,286047001.4,N
1515738695.2,286047001.9,N
1515738715.0,286047001.7,N
1515738715.9,286047001.7,N
1515738735.8,286047001.8,N
1515738755.6,286047002.8,N
1515738775.4,286047001.6,N
1515738795.3,286047004.3,N
1515738815.1,286047001.3,N
1515738835.8,286047004.4,N
1515738855.7,286047001.8,N
1515738875.5,286047004.2,N
1515738895.4,286047003.9,Y
1515738915.2,286046999.7,P
1515738935.0,286047002.3,N
1515738935.9,286047002.3,N
1515738955.8,286047003.9,Y
1515738975.6,286047002.1,P
1515738995.4,286047001.9,P
1515739015.3,286047000.0,N
1515739035.1,286046998.5,N
1515739055.9,286047000.5,N
1515739075.7,286047001.0,N
1515739095.5,286047000.3,N
1515739115.4,286046999.9,N
1515739135.2,286046999.8,N
1515739155.0,286046999.7,N
1515739156.0,286046999.7,N
1515739175.8,286047000.9,N
1515739195.6,286047001.0,N
1515739215.5,286047000.7,N
1515739235.3,286046999.8,N
1515739255.1,286047001.1,N
1515739275.9,286046998.1,N
1515739295.7,286047000.6,N
1515739315.6,286047002.5,N
1515739335.4,286047002.7,N
1515739355.2,286047000.6,N
1515739375.1,286046999.7,N
1515739376.0,286046999.7,N
1515739395.8,286047000.1,N
1515739415.6,286047000.2,N
1515739435.5,286047000.0,N
1515739455.3,286047000.5,N
1515739475.2,286047002.8,N
1515739495.9,286047002.4,N
1515739515.7,286046999.7,N
1515739535.6,286047002.8,N
1515739555.4,286047002.8,N
1515739575.2,286047000.9,N
1515739595.1,286046998.5,N
1515739596.0,286046998.5,N
1515739615.8,286047000.6,N
1515739635.7,286047002.8,N
1515739655.5,286047002.0,N
1515739675.3,286047002.3,N
1515739695.2,286047001.9,N
1515739715.0,286047001.5,N
1515739715.9,286047001.5,N
1515739735.8,286047001.4,N
1515739755.6,286047002.0,N
1515739775.4,286046999.7,N
1515739795.3,286047000.0,N
1515739815.1,286047001.0,N
1515739835.8,286047001.0,N
1515739855.7,286047000.1,N
1515739875.5,286047000.1,N
1515739895.4,286046999.7,N
1515739915.2,286047002.1,N
1515739935.0,286047001.3,N
1515739935.9,286047001.3,N
1515739955.8,286047002.4,N
1515739975.6,286047000.1,N
1515739995.4,286047000.4,N
1515740015.3,286047002.7,N
1515740035.1,286047000.2,N
1515740055.9,286047000.6,N
1515740075.7,286047000.9,N
1515740095.5,286047000.8,N
1515740115.4,286047000.5,N
1515740135.2,286047001.2,N
1515740155.0,286047000.6,N
1515740155.9,286047000.6,N
1515740175.8,286047002.5,N
1515740195.6,286047002.3,N
1515740215.5,286046999.9,N
1515740235.3,286047002.6,N
1515740255.1,286047002.3,N
1515740275.9,286046999.8,N
1515740295.7,286047002.8,N
1515740315.5,286047001.7,N
1515740335.4,286047002.0,N
1515740355.2,286047002.5,N
1515740375.1,286047002.3,N
1515740376.0,286047002.3,N
1515740395.8,286047001.7,N
